ONEWEB-0132 (47278 NORAD) Tracking and Keplerian Element Data

This shows tracking and keplerian element data for the satellite.

Feedback or suggestion? Click here.




ElementValue
Catalog47278
NameONEWEB-0132
Epoch Orbit1072
Epoch Day60.16668981
Epoch Year2021
RAAN16.1903
Inclination87.5437
Eccentricity0.0011007
Argument of Perigee40.3774
Mean Anonmoly149.4062
Mean Motion13.9420121
Decay Rate-0.0097094
L11 47278U 20100W 21060.16668981 -.00970940 00000-0 -77435+0 0 9991
L22 47278 87.5437 16.1903 0011007 40.3774 149.4062 13.94201210 10727

Live tracking and technical data element details for ONEWEB-0132 (NORAD 47278). ONEWEB-0132 can be tracked NOW for your location showing map with azimuth and elevation plus other details from your city location.

Track the satellite on the map from your city or location and see movement details for azimuth, elevation, latitude, longitude, range, height, and movement on the map or in text.







IsCatalogInMostPopularTable: catalog: 47278, numindb: 25
Update: records affected: 1



GetName: 47278 ONEWEB-0132

Hit Count: updated at: Mon, 01 Mar 2021 22:20:08 GMT